CW3846 Weather Reports


Display with metric or nautical units.
time (UTC)temp
F
wind
direction
speed
MPH
gust
MPH
rain 1hr
in
rain 24hr
in
rain mn
in
humidity
%
barometer
mb
20260905022530 98 0 0.0 1.0 0.00 0.00 0.00 20 1009.6
20260905022033 98 0 0.0 1.0 0.00 0.00 0.00 20 1009.6
20260905021546 98 0 0.0 1.0 0.00 0.00 0.00 20 1009.5
20260905021029 99 0 0.0 4.0 0.00 0.00 0.00 20 1009.5
20260905020528 99 0 0.0 4.0 0.00 0.00 0.00 20 1009.5
20260905020106 99 0 0.0 2.0 0.00 0.00 0.00 19 1009.4
20260905015528 99 0 0.0 2.0 0.00 0.00 0.00 19 1009.4
20260905015032 99 0 0.0 2.0 0.00 0.00 0.00 18 1009.3
20260905014558 99 0 0.0 2.0 0.00 0.00 0.00 18 1009.3
20260905014028 99 0 0.0 1.0 0.00 0.00 0.00 18 1009.2
20260905013531 100 0 0.0 1.0 0.00 0.00 0.00 17 1009.2
20260905013049 100 0 0.0 1.0 0.00 0.00 0.00 17 1009.2
20260905012530 100 0 0.0 1.0 0.00 0.00 0.00 16 1009.1
20260905012029 101 0 0.0 4.0 0.00 0.00 0.00 16 1009.1
20260905011549 101 0 0.0 4.0 0.00 0.00 0.00 16 1009.1
20260905011028 101 0 0.0 4.0 0.00 0.00 0.00 16 1009.1
20260905010529 101 0 0.0 1.0 0.00 0.00 0.00 16 1009.1
20260905010055 102 0 0.0 3.0 0.00 0.00 0.00 15 1009.0
20260905005528 102 0 0.0 3.0 0.00 0.00 0.00 15 1009.0
20260905005028 102 0 0.0 3.0 0.00 0.00 0.00 15 1009.0
20260905004552 102 0 0.0 2.0 0.00 0.00 0.00 15 1009.0
20260905004027 102 0 0.0 2.0 0.00 0.00 0.00 16 1009.0
20260905003534 103 0 0.0 1.0 0.00 0.00 0.00 16 1009.1
20260905003048 103 0 0.0 2.0 0.00 0.00 0.00 15 1008.9
20260905002529 103 0 0.0 2.0 0.00 0.00 0.00 15 1008.9
20260905002033 103 0 0.0 3.0 0.00 0.00 0.00 16 1009.0
20260905001557 103 0 0.0 3.0 0.00 0.00 0.00 15 1008.9
20260905001031 103 0 0.0 3.0 0.00 0.00 0.00 16 1008.9
20260905000534 103 0 0.0 3.0 0.00 0.00 0.00 15 1008.9
20260905000057 103 0 0.0 3.0 0.00 0.00 0.00 15 1009.0
20260904235532 104 0 0.0 1.0 0.00 0.00 0.00 16 1009.0
20260904235030 104 0 0.0 1.0 0.00 0.00 0.00 16 1009.0
20260904234556 104 0 0.0 1.0 0.00 0.00 0.00 16 1008.9
20260904234030 104 0 0.0 3.0 0.00 0.00 0.00 16 1008.9
20260904233532 104 0 0.0 4.0 0.00 0.00 0.00 16 1009.0
20260904233055 104 0 0.0 4.0 0.00 0.00 0.00 16 1009.0
20260904232534 104 0 0.0 2.0 0.00 0.00 0.00 16 1009.0
20260904232032 104 0 0.0 2.0 0.00 0.00 0.00 16 1009.1
20260904231555 104 0 0.0 2.0 0.00 0.00 0.00 16 1009.2
20260904231032 104 0 0.0 2.0 0.00 0.00 0.00 17 1009.3
20260904230532 104 0 0.0 2.0 0.00 0.00 0.00 17 1009.3
20260904230056 104 248 0.0 4.0 0.00 0.00 0.00 17 1009.4
20260904225533 103 0 0.0 4.0 0.00 0.00 0.00 17 1009.4
20260904225032 103 0 0.0 4.0 0.00 0.00 0.00 17 1009.3
20260904224603 104 0 0.0 0.0 0.00 0.00 0.00 17 1009.5
20260904224031 104 0 0.0 1.0 0.00 0.00 0.00 17 1009.5
20260904223534 104 0 0.0 1.0 0.00 0.00 0.00 17 1009.5
20260904223050 104 0 0.0 2.0 0.00 0.00 0.00 17 1009.5
20260904222531 104 0 0.0 3.0 0.00 0.00 0.00 17 1009.6
20260904222031 104 0 0.0 3.0 0.00 0.00 0.00 17 1009.7
20260904221601 104 0 0.0 2.0 0.00 0.00 0.00 17 1009.6
20260904221031 103 0 0.0 2.0 0.00 0.00 0.00 17 1009.6
20260904220532 103 237 0.0 1.0 0.00 0.00 0.00 18 1009.7
20260904220058 103 0 0.0 1.0 0.00 0.00 0.00 19 1009.8
20260904215532 103 0 0.0 1.0 0.00 0.00 0.00 19 1009.8
20260904215032 104 0 0.0 1.0 0.00 0.00 0.00 18 1009.9
20260904214553 104 0 0.0 1.0 0.00 0.00 0.00 19 1010.0
20260904214032 104 0 0.0 0.0 0.00 0.00 0.00 17 1010.0
20260904213532 105 0 0.0 1.0 0.00 0.00 0.00 17 1010.0
20260904213047 104 0 0.0 1.0 0.00 0.00 0.00 18 1010.1
20260904212532 104 0 0.0 3.0 0.00 0.00 0.00 18 1010.2
20260904212031 104 0 0.0 3.0 0.00 0.00 0.00 18 1010.2
20260904211556 104 0 0.0 3.0 0.00 0.00 0.00 19 1010.2
20260904211033 104 0 0.0 1.0 0.00 0.00 0.00 18 1010.3
20260904210532 104 0 0.0 7.0 0.00 0.00 0.00 18 1010.3
20260904210055 104 0 0.0 7.0 0.00 0.00 0.00 18 1010.5
20260904205532 103 0 0.0 7.0 0.00 0.00 0.00 19 1010.5
20260904205032 103 0 0.0 1.0 0.00 0.00 0.00 20 1010.5
20260904204557 103 0 0.0 1.0 0.00 0.00 0.00 19 1010.6
20260904204034 103 0 0.0 0.0 0.00 0.00 0.00 19 1010.7
20260904203532 102 0 0.0 0.0 0.00 0.00 0.00 19 1010.8
20260904203057 102 0 0.0 0.0 0.00 0.00 0.00 20 1010.8
20260904202531 102 0 0.0 1.0 0.00 0.00 0.00 22 1010.9
20260904202029 101 0 0.0 1.0 0.00 0.00 0.00 22 1010.9
20260904201621 101 0 0.0 0.0 0.00 0.00 0.00 22 1011.1
20260904201032 101 0 0.0 0.0 0.00 0.00 0.00 22 1011.3
20260904200532 102 0 0.0 0.0 0.00 0.00 0.00 21 1011.4
20260904200058 101 0 0.0 0.0 0.00 0.00 0.00 22 1011.5
20260904195532 101 0 0.0 0.0 0.00 0.00 0.00 22 1011.5
20260904195032 101 0 0.0 1.0 0.00 0.00 0.00 22 1011.7
20260904194609 101 0 0.0 1.0 0.00 0.00 0.00 22 1011.6
20260904194032 101 0 0.0 1.0 0.00 0.00 0.00 23 1011.7
20260904193532 100 0 0.0 1.0 0.00 0.00 0.00 23 1011.7
20260904193058 100 0 0.0 0.0 0.00 0.00 0.00 25 1011.7
20260904192534 100 0 0.0 0.0 0.00 0.00 0.00 26 1011.8
20260904192051 99 0 0.0 1.0 0.00 0.00 0.00 26 1011.8
20260904191556 99 0 0.0 1.0 0.00 0.00 0.00 26 1011.9
20260904191031 99 0 0.0 1.0 0.00 0.00 0.00 27 1012.0
20260904190532 98 0 0.0 0.0 0.00 0.00 0.00 27 1012.0
20260904190059 98 0 0.0 0.0 0.00 0.00 0.00 28 1012.1
20260904185533 98 0 0.0 0.0 0.00 0.00 0.00 27 1012.2
20260904185032 98 0 0.0 0.0 0.00 0.00 0.00 27 1012.3
20260904184559 98 0 0.0 0.0 0.00 0.00 0.00 27 1012.4
20260904184029 98 0 0.0 0.0 0.00 0.00 0.00 27 1012.5
20260904183533 98 0 0.0 0.0 0.00 0.00 0.00 27 1012.5
20260904183053 98 0 0.0 0.0 0.00 0.00 0.00 27 1012.6
20260904182530 98 0 0.0 0.0 0.00 0.00 0.00 28 1012.8
20260904182124 97 0 0.0 0.0 0.00 0.00 0.00 29 1012.8
20260904181551 97 0 0.0 0.0 0.00 0.00 0.00 29 1013.0
20260904181033 96 0 0.0 0.0 0.00 0.00 0.00 29 1013.0
20260904180532 96 0 0.0 0.0 0.00 0.00 0.00 31 1012.9
20260904180059 96 0 0.0 0.0 0.00 0.00 0.00 30 1013.0
20260904175531 96 0 0.0 0.0 0.00 0.00 0.00 31 1013.0
20260904175028 95 0 0.0 0.0 0.00 0.00 0.00 31 1013.2
20260904174552 95 0 0.0 0.0 0.00 0.00 0.00 32 1013.2
20260904174031 95 0 0.0 0.0 0.00 0.00 0.00 32 1013.2
20260904173532 95 0 0.0 0.0 0.00 0.00 0.00 33 1013.3
20260904173111 94 0 0.0 0.0 0.00 0.00 0.00 32 1013.3
20260904172531 94 0 0.0 0.0 0.00 0.00 0.00 33 1013.3
20260904172032 94 0 0.0 1.0 0.00 0.00 0.00 33 1013.4
20260904171607 94 0 0.0 1.0 0.00 0.00 0.00 33 1013.5
20260904171029 94 0 0.0 1.0 0.00 0.00 0.00 33 1013.4
20260904170528 94 0 0.0 2.0 0.00 0.00 0.00 33 1013.4
20260904170055 94 0 0.0 2.0 0.00 0.00 0.00 33 1013.3
20260904165532 94 0 0.0 0.0 0.00 0.00 0.00 33 1013.3
20260904165035 93 0 0.0 0.0 0.00 0.00 0.00 35 1013.4
20260904164556 93 0 0.0 0.0 0.00 0.00 0.00 37 1013.3
20260904164033 93 0 0.0 0.0 0.00 0.00 0.00 36 1013.3
20260904163530 92 0 0.0 0.0 0.00 0.00 0.00 39 1013.2
20260904163102 92 0 0.0 0.0 0.00 0.00 0.00 39 1013.2
20260904162532 92 0 0.0 0.0 0.00 0.00 0.00 40 1013.2
20260904162032 92 0 0.0 0.0 0.00 0.00 0.00 40 1013.2
20260904161558 91 0 0.0 0.0 0.00 0.00 0.00 41 1013.2
20260904161033 91 0 0.0 0.0 0.00 0.00 0.00 42 1013.2
20260904160532 91 0 0.0 0.0 0.00 0.00 0.00 41 1013.1
20260904160058 91 0 0.0 0.0 0.00 0.00 0.00 42 1013.1
20260904155530 90 0 0.0 0.0 0.00 0.00 0.00 43 1013.1
20260904155031 90 0 0.0 1.0 0.00 0.00 0.00 43 1013.0
20260904154553 90 0 0.0 1.0 0.00 0.00 0.00 44 1012.9
20260904154031 89 0 0.0 0.0 0.00 0.00 0.00 44 1012.8
20260904153531 89 0 0.0 0.0 0.00 0.00 0.00 45 1012.9
20260904153053 89 0 0.0 0.0 0.00 0.00 0.00 45 1012.8
20260904152531 89 0 0.0 0.0 0.00 0.00 0.00 46 1012.9
20260904152031 88 0 0.0 1.0 0.00 0.00 0.00 47 1012.8
20260904151614 88 0 0.0 1.0 0.00 0.00 0.00 47 1012.7
20260904151030 88 319 0.0 1.0 0.00 0.00 0.00 47 1012.6
20260904150532 88 0 0.0 1.0 0.00 0.00 0.00 48 1012.8
20260904150119 87 0 0.0 1.0 0.00 0.00 0.00 49 1012.8
20260904145530 87 0 0.0 1.0 0.00 0.00 0.00 50 1012.7
20260904145032 87 0 0.0 2.0 0.00 0.00 0.00 50 1012.5
20260904144554 86 0 0.0 2.0 0.00 0.00 0.00 51 1012.5
20260904144031 86 0 0.0 1.0 0.00 0.00 0.00 52 1012.6
20260904143531 85 0 0.0 0.0 0.00 0.00 0.00 53 1012.5
20260904143049 85 0 0.0 0.0 0.00 0.00 0.00 54 1012.5
20260904142530 84 0 0.0 0.0 0.00 0.00 0.00 55 1012.4
20260904142032 84 0 0.0 0.0 0.00 0.00 0.00 57 1012.4
20260904141548 83 0 0.0 0.0 0.00 0.00 0.00 57 1012.3
20260904141030 83 0 0.0 0.0 0.00 0.00 0.00 58 1012.3
20260904140531 82 0 0.0 0.0 0.00 0.00 0.00 59 1012.3
20260904140056 82 0 0.0 0.0 0.00 0.00 0.00 58 1012.2
20260904135532 82 0 0.0 0.0 0.00 0.00 0.00 58 1012.3
20260904135032 82 0 0.0 0.0 0.00 0.00 0.00 57 1012.1
20260904134558 82 0 0.0 0.0 0.00 0.00 0.00 55 1012.1
20260904134032 82 0 0.0 0.0 0.00 0.00 0.00 55 1012.0
20260904133532 82 0 0.0 0.0 0.00 0.00 0.00 54 1011.9
20260904133057 82 0 0.0 0.0 0.00 0.00 0.00 53 1011.8
20260904132535 82 0 0.0 0.0 0.00 0.00 0.00 53 1011.6
20260904132032 82 0 0.0 0.0 0.00 0.00 0.00 53 1011.7
20260904131556 82 0 0.0 0.0 0.00 0.00 0.00 52 1011.5
20260904131032 82 0 0.0 0.0 0.00 0.00 0.00 52 1011.4
20260904130533 82 0 0.0 0.0 0.00 0.00 0.00 51 1011.4
20260904130053 82 0 0.0 0.0 0.00 0.00 0.00 50 1011.4
20260904125531 82 0 0.0 0.0 0.00 0.00 0.00 50 1011.3
20260904125029 82 0 0.0 0.0 0.00 0.00 0.00 50 1011.3
20260904124547 82 0 0.0 0.0 0.00 0.00 0.00 49 1011.1
20260904124032 82 0 0.0 0.0 0.00 0.00 0.00 49 1011.2
20260904123531 82 0 0.0 0.0 0.00 0.00 0.00 49 1011.1
20260904123048 83 0 0.0 0.0 0.00 0.00 0.00 49 1011.0
20260904122531 83 0 0.0 0.0 0.00 0.00 0.00 49 1010.9
20260904122033 83 0 0.0 0.0 0.00 0.00 0.00 49 1010.9
20260904121553 83 0 0.0 0.0 0.00 0.00 0.00 49 1010.9
20260904121031 83 0 0.0 0.0 0.00 0.00 0.00 49 1010.9
20260904120528 83 0 0.0 0.0 0.00 0.00 0.00 48 1010.8
20260904120106 83 0 0.0 0.0 0.00 0.00 0.00 47 1010.9
20260904115533 83 0 0.0 0.0 0.00 0.00 0.00 47 1010.9
20260904115032 83 0 0.0 0.0 0.00 0.00 0.00 46 1010.8
20260904114558 83 0 0.0 0.0 0.00 0.00 0.00 46 1010.8
20260904114032 83 0 0.0 0.0 0.00 0.00 0.00 46 1010.7
20260904113533 83 0 0.0 0.0 0.00 0.00 0.00 46 1010.7
20260904113100 83 0 0.0 0.0 0.00 0.00 0.00 46 1010.8
20260904112534 83 0 0.0 0.0 0.00 0.00 0.00 46 1010.8
20260904112029 83 0 0.0 0.0 0.00 0.00 0.00 45 1010.8
20260904111555 83 0 0.0 0.0 0.00 0.00 0.00 45 1010.8
20260904111035 83 0 0.0 0.0 0.00 0.00 0.00 45 1010.8
20260904110530 83 0 0.0 0.0 0.00 0.00 0.00 45 1010.8
20260904110057 83 0 0.0 0.0 0.00 0.00 0.00 45 1010.8
20260904105532 83 0 0.0 0.0 0.00 0.00 0.00 45 1010.8
20260904105031 83 0 0.0 0.0 0.00 0.00 0.00 45 1010.8
20260904104551 83 0 0.0 0.0 0.00 0.00 0.00 45 1010.8
20260904104034 83 0 0.0 0.0 0.00 0.00 0.00 45 1010.7
20260904103530 84 0 0.0 0.0 0.00 0.00 0.00 45 1010.7
20260904103056 84 0 0.0 0.0 0.00 0.00 0.00 45 1010.6
20260904102531 84 0 0.0 0.0 0.00 0.00 0.00 45 1010.6
20260904102031 84 0 0.0 0.0 0.00 0.00 0.00 44 1010.5
20260904101555 84 0 0.0 0.0 0.00 0.00 0.00 44 1010.4
20260904101033 84 0 0.0 0.0 0.00 0.00 0.00 44 1010.4
20260904100534 84 0 0.0 0.0 0.00 0.00 0.00 43 1010.4
20260904100053 84 0 0.0 0.0 0.00 0.00 0.00 43 1010.3
20260904095532 84 0 0.0 0.0 0.00 0.00 0.00 43 1010.2
20260904095032 84 0 0.0 0.0 0.00 0.00 0.00 43 1010.2
20260904094603 84 0 0.0 0.0 0.00 0.00 0.00 42 1010.3
20260904094030 85 0 0.0 0.0 0.00 0.00 0.00 42 1010.3
20260904093528 85 0 0.0 0.0 0.00 0.00 0.00 42 1010.3
20260904093105 85 0 0.0 0.0 0.00 0.00 0.00 42 1010.3
20260904092528 85 0 0.0 0.0 0.00 0.00 0.00 41 1010.1
20260904092031 85 0 0.0 0.0 0.00 0.00 0.00 41 1010.0
20260904091551 85 0 0.0 0.0 0.00 0.00 0.00 41 1010.1
20260904091031 85 0 0.0 0.0 0.00 0.00 0.00 40 1010.1
20260904090533 86 0 0.0 0.0 0.00 0.00 0.00 39 1010.1
20260904090046 86 0 0.0 0.0 0.00 0.00 0.00 39 1010.1
20260904085529 86 0 0.0 0.0 0.00 0.00 0.00 40 1010.1
20260904085031 86 0 0.0 0.0 0.00 0.00 0.00 39 1010.1
20260904084558 86 0 0.0 0.0 0.00 0.00 0.00 39 1010.1
20260904084031 86 0 0.0 0.0 0.00 0.00 0.00 39 1010.1
20260904083533 86 0 0.0 0.0 0.00 0.00 0.00 38 1010.2
20260904083051 86 0 0.0 0.0 0.00 0.00 0.00 39 1010.3
20260904082533 86 0 0.0 0.0 0.00 0.00 0.00 38 1010.3
20260904082032 87 0 0.0 0.0 0.00 0.00 0.00 38 1010.4
20260904081548 87 0 0.0 0.0 0.00 0.00 0.00 39 1010.4
20260904081031 87 0 0.0 0.0 0.00 0.00 0.00 38 1010.3
20260904080528 87 0 0.0 0.0 0.00 0.00 0.00 37 1010.3
20260904080047 87 0 0.0 0.0 0.00 0.00 0.00 37 1010.3
20260904075532 88 0 0.0 0.0 0.00 0.00 0.00 37 1010.4
20260904075029 88 0 0.0 0.0 0.00 0.00 0.00 37 1010.4
20260904074556 88 0 0.0 0.0 0.00 0.00 0.00 36 1010.3
20260904074031 88 0 0.0 0.0 0.00 0.00 0.00 36 1010.3
20260904073531 89 0 0.0 0.0 0.00 0.00 0.00 36 1010.5
20260904073051 89 0 0.0 0.0 0.00 0.00 0.00 35 1010.4
20260904072531 89 0 0.0 0.0 0.00 0.00 0.00 35 1010.4
20260904072032 90 0 0.0 0.0 0.00 0.00 0.00 35 1010.5
20260904071553 90 0 0.0 0.0 0.00 0.00 0.00 34 1010.3
20260904071031 90 0 0.0 0.0 0.00 0.00 0.00 34 1010.3
20260904070530 90 0 0.0 0.0 0.00 0.00 0.00 34 1010.3
20260904070055 90 0 0.0 0.0 0.00 0.00 0.00 33 1010.2
20260904065530 91 0 0.0 0.0 0.00 0.00 0.00 33 1010.2
20260904065030 91 0 0.0 0.0 0.00 0.00 0.00 33 1010.1
20260904064547 91 0 0.0 1.0 0.00 0.00 0.00 33 1010.0
20260904064032 91 0 0.0 1.0 0.00 0.00 0.00 33 1010.0
20260904063528 91 0 0.0 0.0 0.00 0.00 0.00 33 1010.0
20260904063059 91 0 0.0 1.0 0.00 0.00 0.00 33 1010.0
20260904062529 91 0 0.0 1.0 0.00 0.00 0.00 33 1009.9
20260904062031 91 0 0.0 1.0 0.00 0.00 0.00 33 1009.9
20260904061547 91 0 0.0 1.0 0.00 0.00 0.00 32 1009.9
20260904061030 92 0 0.0 1.0 0.00 0.00 0.00 33 1009.9
20260904060532 92 0 0.0 1.0 0.00 0.00 0.00 33 1009.8
20260904060049 92 0 0.0 1.0 0.00 0.00 0.00 33 1009.8
20260904055528 92 0 0.0 1.0 0.00 0.00 0.00 33 1009.8
20260904055028 92 0 0.0 1.0 0.00 0.00 0.00 33 1009.7
20260904054557 92 0 0.0 1.0 0.00 0.00 0.00 33 1009.7
20260904054029 92 0 0.0 0.0 0.00 0.00 0.00 33 1009.8
20260904053529 92 0 0.0 0.0 0.00 0.00 0.00 33 1009.8
20260904053054 92 0 0.0 0.0 0.00 0.00 0.00 33 1009.7
20260904052535 92 0 0.0 0.0 0.00 0.00 0.00 33 1009.7
20260904052030 92 0 0.0 0.0 0.00 0.00 0.00 33 1009.7
20260904051550 92 0 0.0 0.0 0.00 0.00 0.00 32 1009.7
20260904051033 92 0 0.0 0.0 0.00 0.00 0.00 32 1009.6
20260904050531 92 0 0.0 0.0 0.00 0.00 0.00 32 1009.7
20260904050049 92 0 0.0 0.0 0.00 0.00 0.00 32 1009.6
20260904045530 92 0 0.0 0.0 0.00 0.00 0.00 32 1009.5
20260904045032 93 0 0.0 0.0 0.00 0.00 0.00 31 1009.6
20260904044546 93 0 0.0 0.0 0.00 0.00 0.00 31 1009.5
20260904044029 93 0 0.0 0.0 0.00 0.00 0.00 31 1009.5
20260904043529 93 0 0.0 0.0 0.00 0.00 0.00 31 1009.6
20260904043056 93 0 0.0 0.0 0.00 0.00 0.00 30 1009.6
20260904042532 93 0 0.0 0.0 0.00 0.00 0.00 30 1009.5
20260904042032 94 0 0.0 0.0 0.00 0.00 0.00 30 1009.5
20260904041552 94 0 0.0 0.0 0.00 0.00 0.00 30 1009.5
20260904041032 94 0 0.0 0.0 0.00 0.00 0.00 30 1009.5
20260904040531 94 0 0.0 0.0 0.00 0.00 0.00 29 1009.3
20260904035530 95 0 0.0 0.0 0.00 0.00 0.00 28 1009.2
20260904035030 95 0 0.0 0.0 0.00 0.00 0.00 27 1009.1
20260904034555 96 0 0.0 0.0 0.00 0.00 0.00 27 1009.1
20260904034028 96 0 0.0 0.0 0.00 0.00 0.00 28 1009.1
20260904033529 96 0 0.0 0.0 0.00 0.00 0.00 28 1009.0
20260904033053 96 0 0.0 0.0 0.00 0.00 0.00 27 1009.0
20260904032528 96 0 0.0 1.0 0.00 0.00 0.00 27 1008.8
20260904032028 96 0 0.0 1.0 0.00 0.00 0.00 27 1008.8
20260904031552 97 0 0.0 1.0 0.00 0.00 0.00 28 1008.7
20260904031030 97 0 0.0 1.0 0.00 0.00 0.00 27 1008.6
20260904030532 97 0 0.0 1.0 0.00 0.00 0.00 27 1008.7
20260904030054 97 0 0.0 1.0 0.00 0.00 0.00 26 1008.6
20260904025531 97 0 0.0 0.0 0.00 0.00 0.00 26 1008.5
20260904025031 97 0 0.0 0.0 0.00 0.00 0.00 26 1008.6
20260904024559 97 0 0.0 0.0 0.00 0.00 0.00 25 1008.4
20260904024029 98 0 0.0 1.0 0.00 0.00 0.00 25 1008.3
20260904023527 98 0 0.0 1.0 0.00 0.00 0.00 25 1008.3
20260904023101 98 0 0.0 1.0 0.00 0.00 0.00 24 1008.3